Regional Weather Roundup
Issued by NWS

Home | Current Version | Previous Version | Graphics & Text | Print | Product List | Glossary On
Versions: 1 2 3 4 5 6 7 8 9 10 11 12 13 14 15 16 17 18 19 20 21 22 23 24 25 26 27 28 29 30 31 32 33 34 35 36 37 38 39 40 41 42 43 44 45 46 47 48 49 50
000
ASUS43 KBIS 252202
RWRND

NORTH DAKOTA REGIONAL WEATHER ROUNDUP
NATIONAL WEATHER SERVICE BISMARCK ND
400 PM CST SUN FEB 25 2018

NOTE: "FAIR" INDICATES FEW OR NO CLOUDS BELOW 12,000 FEET WITH NO
SIGNIFICANT WEATHER AND/OR OBSTRUCTIONS TO VISIBILITY.


NDZ001>003-009>011-017-252300-
NORTHWEST NORTH DAKOTA

CITY           SKY/WX    TMP DP  RH WIND       PRES   REMARKS
WILLISTON      MOSUNNY   28  16  60 SW13      29.62R WCI  17
MINOT          SUNNY     30  17  58 SW17      29.62S WCI  18
MINOT AFB      SUNNY     28  16  60 SW16        N/A  WCI  17
$$

NDZ018>021-031>035-040>046-252300-
SOUTHWEST NORTH DAKOTA

CITY           SKY/WX    TMP DP  RH WIND       PRES   REMARKS
BISMARCK       SUNNY     32  18  56 SW12      29.72R
DICKINSON      PTSUNNY   29  20  69 SW14      29.64R WCI  18
GARRISON         N/A     28  17  63 SW12      29.64S WCI  18
HETTINGER ARPT PTSUNNY   28  17  63 W15       29.71R WCI  16
$$

NDZ004>008-012>016-024-026-027-054-252300-
NORTHEAST NORTH DAKOTA

CITY           SKY/WX    TMP DP  RH WIND       PRES   REMARKS
GRAND FORKS    FAIR      29  22  75 W9        29.68R
GRND FRKS AFB  FAIR      29  20  69 W13       29.67R WCI  19
DEVILS LAKE    FAIR      27  20  75 W17       29.66R WCI  14
$$

NDZ022-023-025-028>030-036>039-047>053-252300-
SOUTHEAST NORTH DAKOTA

CITY           SKY/WX    TMP DP  RH WIND       PRES   REMARKS
FARGO          FAIR      29  22  75 W16       29.73R WCI  17
JAMESTOWN      SUNNY     29  20  69 W13       29.70R WCI  19
$$





USA.gov is the U.S. government's official web portal to all federal, state and local government web resources and services.